CW3071 Weather Reports


time (UTC)temp
F
wind
direction
speed
knots
gust
knots
rain 1hr
in
rain 24hr
in
rain mn
in
humidity
%
barometer
mb
20260504221600 54 360 7.8 15.6 0.00 0.00 0.00 46 1011.4
20260504220058 55 9 7.0 13.0 0.00 0.00 0.00 45 1011.4
20260504214549 54 31 6.1 11.3 0.00 0.00 0.00 44 1011.5
20260504213050 55 32 7.0 11.3 0.00 0.00 0.00 46 1011.6
20260504211550 54 55 3.5 9.6 0.00 0.00 0.00 46 1011.9
20260504210055 53 4 4.3 10.4 0.00 0.00 0.00 47 1011.9
20260504204549 52 30 3.5 13.0 0.00 0.00 0.00 48 1012.1
20260504203101 52 41 5.2 11.3 0.00 0.00 0.00 46 1012.3
20260504201549 53 350 5.2 10.4 0.00 0.00 0.00 46 1012.3
20260504200052 52 1 4.3 11.3 0.00 0.00 0.00 48 1012.5
20260504194549 52 3 4.3 13.0 0.00 0.00 0.00 47 1012.5
20260504193049 52 345 7.0 10.4 0.00 0.00 0.00 47 1012.7
20260504191602 52 340 5.2 12.2 0.00 0.00 0.00 48 1012.9
20260504190049 52 28 7.0 13.0 0.00 0.00 0.00 46 1012.9
20260504184551 53 7 7.0 14.8 0.00 0.00 0.00 47 1013.0
20260504183059 53 18 6.1 12.2 0.00 0.00 0.00 47 1013.2
20260504181556 52 350 5.2 13.9 0.00 0.00 0.00 49 1013.2
20260504174552 50 355 7.8 15.6 0.00 0.00 0.00 51 1013.5
20260504173052 51 330 4.3 12.2 0.00 0.00 0.00 52 1013.3
20260504171551 51 4 6.1 13.9 0.00 0.00 0.00 51 1013.3
20260504081552 41 350 1.7 3.5 0.00 0.00 0.00 71 1009.0
20260504050108 47 350 0.9 4.3 0.00 0.00 0.00 62 1010.0
20260504044557 48 350 0.9 2.6 0.00 0.00 0.00 59 1010.1
20260504043055 49 350 0.9 3.5 0.00 0.00 0.00 57 1010.2
20260504041555 50 0 0.0 3.5 0.00 0.00 0.00 55 1010.2
20260504040057 52 350 1.7 2.6 0.00 0.00 0.00 52 1010.2
20260504034552 53 0 0.0 0.9 0.00 0.00 0.00 50 1010.1
20260504033053 53 0 0.9 3.5 0.00 0.00 0.00 49 1010.2
20260504031555 56 350 0.9 3.5 0.00 0.00 0.00 45 1010.1
20260504030055 58 37 0.9 2.6 0.00 0.00 0.00 40 1010.2
20260504024609 58 37 0.9 3.5 0.00 0.00 0.00 39 1010.1
20260504023054 59 34 1.7 3.5 0.00 0.00 0.00 40 1010.0
20260504021552 61 28 0.9 2.6 0.00 0.00 0.00 37 1010.1
20260504020057 62 28 0.9 3.5 0.00 0.00 0.00 35 1010.1
20260504014601 63 28 0.9 3.5 0.00 0.00 0.00 35 1010.0
20260504013056 65 23 1.7 4.3 0.00 0.00 0.00 32 1010.2
20260504011554 66 28 0.9 2.6 0.00 0.00 0.00 31 1010.2
20260504010104 66 355 2.6 5.2 0.00 0.00 0.00 30 1010.4
20260504004553 66 345 2.6 7.0 0.00 0.00 0.00 29 1010.6
20260504003059 66 345 4.3 7.8 0.00 0.00 0.00 29 1010.6
20260504001551 67 345 2.6 8.7 0.00 0.00 0.00 29 1010.8
20260504000134 67 9 2.6 5.2 0.00 0.00 0.00 28 1010.8
20260503234559 67 345 3.5 7.8 0.00 0.00 0.00 29 1011.0
20260503233051 66 329 5.2 11.3 0.00 0.00 0.00 29 1011.1
20260503231552 67 16 5.2 8.7 0.00 0.00 0.00 30 1011.3
20260503230056 67 345 4.3 11.3 0.00 0.00 0.00 30 1011.3
20260503224554 67 342 5.2 12.2 0.00 0.00 0.00 29 1011.4
20260503223055 66 355 3.5 10.4 0.00 0.00 0.00 30 1011.5